Regional Weather Roundup
Issued by NWS

Home | Current Version | Previous Version | Graphics & Text | Print | Product List | Glossary On
Versions: 1 2 3 4 5 6 7 8 9 10 11 12 13 14 15 16 17 18 19 20 21 22 23 24 25 26 27 28 29 30 31 32 33 34 35 36 37 38 39 40 41 42 43 44 45 46 47 48 49 50
000
ASUS44 KMEG 272100
RWRTN
TENNESSEE HOURLY STATE WEATHER ROUNDUP
NATIONAL WEATHER SERVICE MEMPHIS TN
400 PM CDT MON JUL 27 2015

TNZ002-004-019-021-049-052-054-088>092-272200-
WEST TENNESSEE

CITY           SKY/WX    TMP DP  RH WIND       PRES   REMARKS
MEMPHIS INTL   MOSUNNY   95  71  45 SW6       29.93F HX 102
NWS MEMPHIS      N/A     96 N/A N/A MISG        N/A
JACKSON        SUNNY     96  72  45 S5        29.94F HX 104
DYERSBURG        N/A    N/A N/A N/A MISG        N/A
PARIS          SUNNY     91  73  55 SW6       29.96  HX 100
LEXINGTON      SUNNY     93  73  52 SW6       29.94F HX 102
$$

TNZ008-025-027-028-033-062-065-066-272200-
NORTH MIDDLE TENNESSEE

CITY           SKY/WX    TMP DP  RH WIND       PRES   REMARKS
NASHVILLE      PTSUNNY   92  73  53 SW8       29.95F HX 100
CLARKSVILLE    MOSUNNY   90  73  57 S8        29.94F HX  98
COOKEVILLE     SUNNY     97  72  44 W3        29.99S HX 105
CROSSVILLE     PTSUNNY   88  69  53 VRB7      30.04F HX  92
$$

TNZ061-075-076-078-094-096-097-272200-
SOUTH MIDDLE TENNESSEE

CITY           SKY/WX    TMP DP  RH WIND       PRES   REMARKS
FAYETTEVILLE   SUNNY     91  68  46 W5        29.98F HX  95
TULLAHOMA      SUNNY     91  66  43 CALM      30.00S HX  94
WINCHESTER     SUNNY     93  70  46 N3        29.98F HX  99
MCMINNVILLE    SUNNY     91  75  59 W7        29.99S HX 102
SHELBYVILLE    SUNNY     97  73  46 SW6       29.98F HX 107
$$

TNZ017-018-042-046-047-272200-
NORTHEAST TENNESSEE

CITY           SKY/WX    TMP DP  RH WIND       PRES   REMARKS
TRI CITIES     CLOUDY    79  71  76 VRB3      30.01F
ELIZABETHTON   CLEAR     82  72  69 E6        30.01F
$$

TNZ012-013-036-069-073-074-272200-
CENTRAL EAST TENNESSEE

CITY           SKY/WX    TMP DP  RH WIND       PRES   REMARKS
KNOXVILLE      CLOUDY    87  69  54 NW7       29.96F HX  91
OAK RIDGE      PTSUNNY   90  73  57 VRB3      29.98F HX  98
GATLINBURG       N/A     91  68  46 VRB3      29.96F HX  95
$$

TNZ083-085-099-272200-
SOUTHEAST TENNESSEE

CITY           SKY/WX    TMP DP  RH WIND       PRES   REMARKS
CHATTANOOGA    PTSUNNY   90  71  53 SW5       29.96F HX  96
$$

SKY/WX REPORTED AS FAIR MEANS FEW OR NO CLOUDS BELOW
12 THOUSAND FEET.



USA.gov is the U.S. government's official web portal to all federal, state and local government web resources and services.